CAPE
69 82 51 40 37 92 102 19 10 0 35 25 11 11 2 0 0 0 0 0 13 7 0 0 0 0 0 0 0 0 0 0 0 0 0 0 0 0 0 23 0 0 0 0
76 75 45 27 41 86 34 9 26 14 6 5 6 9 11 0 0 0 0 0 21 6 1 0 0 0 0 0 0 0 0 0 0 0 0 0 0 0 0 0 0 0 13 2
80 86 35 30 45 99 16 37 19 98 33 2 1 14 21 20 0 0 0 0 11 10 4 0 0 0 0 0 0 0 0 0 0 0 0 0 0 0 0 7 0 0 0 0
56 87 34 34 54 99 18 40 44 35 16 17 13 6 4 5 0 0 0 0 0 15 1 0 0 0 0 0 0 0 0 0 0 0 0 0 0 0 0 0 0 0 0 0
45 67 29 32 58 97 30 7 10 26 0 0 13 30 26 5 0 0 0 0 0 0 19 7 0 0 0 0 0 0 0 0 0 0 0 0 0 0 0 0 0 0 0 0
92 82 31 33 71 78 28 6 0 21 3 2 14 9 25 37 0 0 0 0 0 6 0 0 0 0 0 0 0 0 0 0 0 0 0 0 0 0 0 0 0 0 0 0
136 61 35 30 74 36 21 1 9 21 24 13 1 1 39 22 0 0 0 0 0 0 0 0 0 0 0 0 0 0 0 0 0 0 0 0 0 0 0 0 0 0 0 0
100 56 48 35 61 51 14 0 10 62 57 2 8 10 10 53 20 0 0 0 0 0 0 4 0 0 0 0 0 0 0 0 0 0 0 0 0 0 0 0 0 0 0 0
86 69 39 35 44 87 10 0 0 41 61 24 1 10 10 7 22 5 0 0 0 0 0 0 7 0 0 0 0 0 0 0 8 0 0 0 0 0 0 0 0 0 0 0
33 55 21 40 53 70 0 0 0 63 69 20 43 43 9 19 18 0 0 0 0 0 0 0 0 0 0 0 0 0 0 0 0 0 0 0 0 0 0 0 0 0 0 0
59 13 36 39 36 54 0 0 0 6 46 15 1 11 22 18 0 0 0 2 0 0 0 0 0 0 0 0 0 0 0 0 0 0 0 0 0 0 0 0 0 0 0 0
13 27 26 25 36 35 1 0 0 0 2 17 32 2 0 0 1 0 0 0 0 0 0 0 0 0 0 0 0 0 0 0 0 0 0 0 0 0 0 0 0 0 0 0
24 31 22 22 42 49 1 0 0 1 1 8 14 0 2 0 0 0 0 0 1 0 0 0 0 0 0 0 0 0 0 0 0 0 0 0 0 0 0 0 0 0 0 0
36 37 44 43 53 51 1 3 0 2 28 50 0 9 1 29 0 0 0 0 0 0 0 0 0 0 0 0 0 0 0 0 0 0 0 0 0 0 0 0 0 0 0 0
34 41 40 42 58 60 3 4 20 0 46 15 6 0 0 0 0 0 2 1 0 0 0 0 0 0 0 0 0 0 0 0 0 0 0 0 0 0 0 0 0 0 0 0
40 55 65 87 84 14 22 9 3 10 16 17 0 0 0 73 99 33 3 8 0 4 0 0 0 0 0 0 0 0 0 0 0 0 0 0 0 0 0 0 0 0 0 0
36 38 29 31 49 0 20 4 0 0 0 48 2 1 0 13 62 12 1 0 1 0 0 0 0 0 0 0 0 0 0 0 0 0 0 0 0 0 0 0 0 0 0 0
26 28 37 57 45 34 23 6 0 0 48 8 1 0 0 0 0 0 1 1 0 1 0 0 0 0 0 0 0 0 0 0 0 0 0 0 0 0 0 0 0 0 0 0
15 57 45 57 50 31 3 6 2 35 5 0 0 3 0 0 1 0 0 0 25 1 0 0 0 0 0 0 0 0 0 0 0 0 0 0 0 0 0 0 0 0 1 0
53 30 59 19 22 8 8 90 44 34 9 1 1 0 6 0 0 0 0 1 0 7 0 0 0 0 0 0 0 0 0 0 0 0 1 0 0 0 0 0 0 0 0 1
22 12 0 0 10 35 1 1 1 2 0 0 0 0 0 0 0 0 0 0 0 2 0 1 0 0 0 0 0 0 0 0 0 0 0 0 0 0 0 0 0 1 1 1
5 14 0 3 14 13 0 0 0 1 0 0 0 0 0 0 0 0 0 0 0 0 0 0 0 2 1 1 1 0 0 0 0 0 0 0 0 0 0 0 1 1 0 0
28 0 0 8 0 1 0 0 1 1 0 0 0 0 0 0 0 0 0 0 0 0 0 0 3 3 2 2 1 1 0 0 0 0 0 0 0 0 0 1 1 0 0 1
0 0 0 0 0 0 0 0 1 0 0 0 0 0 0 0 0 0 0 0 0 0 0 2 4 4 5 1 1 1 2 1 1 1 1 0 0 1 0 0 0 0 0 1
0 0 0 0 1 0 0 0 0 0 0 0 0 0 0 0 0 0 0 0 1 3 3 2 1 3 1 1 1 1 1 0 1 1 0 0 0 0 0 0 0 0 0 0
1 1 0 1 3 0 1 0 0 1 0 0 0 0 0 3 0 0 2 1 1 5 7 3 1 1 1 1 1 1 1 1 1 1 2 1 0 0 1 0 0 0 0 0
4 6 1 0 4 2 1 0 1 2 0 2 0 0 1 0 0 0 1 1 4 1 4 4 2 2 2 1 1 1 2 2 2 2 1 1 1 0 0 0 0 0 0 0
CIN
-0 -0 -1 -0 -0 -0 -1 -0 -0 -0 -19 -3 -8 -0 -2 -0 -0 -0 -0 -0 -75 -111 -0 -0 -0 -0 -0 -0 -0 -0 -0 -0 -0 -0 -0 -0 -0 -0 -0 -89 -0 -0 -0 -0
-0 -0 -1 -0 -0 -0 -2 -0 -2 -50 -33 -15 -0 -0 -0 -0 -0 -0 -0 -0 -113 -117 -25 -0 -0 -0 -0 -0 -0 -0 -0 -0 -0 -0 -0 -0 -0 -0 -0 -0 -0 -0 -45 -38
-0 -0 -0 -0 -0 -0 -3 -7 -0 -0 -0 -0 -2 -0 -0 -0 -0 -0 -0 -0 -140 -120 -141 -0 -0 -0 -0 -0 -0 -0 -0 -0 -0 -0 -0 -0 -0 -0 -0 -46 -0 -0 -0 -0
-0 -0 -0 -0 -0 -0 -2 -26 -9 -6 -0 -0 -1 -2 -2 -0 -0 -0 -0 -0 -0 -113 -123 -0 -0 -0 -0 -0 -0 -0 -0 -0 -0 -0 -0 -0 -0 -0 -0 -0 -0 -4 -0 -0
-0 -3 -0 -0 -0 -0 -1 -0 -15 -18 -0 -0 -0 -1 -1 -0 -0 -0 -0 -0 -3 -4 -130 -90 -0 -0 -0 -0 -0 -0 -0 -0 -0 -0 -0 -0 -0 -0 -0 -0 -0 -0 -0 -0
-27 -0 -0 -0 -0 -0 -1 -0 -0 -41 -1 -0 -0 -0 -0 -0 -0 -0 -0 -0 -0 -264 -0 -192 -0 -0 -0 -0 -0 -0 -0 -0 -0 -0 -0 -0 -0 -0 -0 -0 -0 -0 -0 -0
-1 -0 -0 -0 -0 -1 -14 -1 -45 -17 -3 -2 -0 -1 -0 -1 -0 -0 -0 -0 -0 -0 -173 -0 -0 -0 -0 -0 -0 -0 -0 -0 -0 -0 -0 -0 -0 -0 -0 -0 -0 -0 -0 -0
-0 -0 -0 -0 -0 -0 -15 -5 -52 -32 -9 -7 -0 -1 -1 -2 -7 -0 -0 -0 -0 -0 -58 -86 -8 -0 -0 -0 -0 -0 -0 -0 -0 -0 -0 -0 -0 -0 -0 -0 -0 -0 -0 -0
-1 -0 -0 -0 -0 -0 -14 -33 -0 -73 -13 -10 -0 -4 -0 -3 -3 -6 -0 -0 -0 -0 -0 -0 -63 -0 -0 -0 -0 -0 -0 -0 -146 -0 -0 -0 -0 -0 -0 -0 -0 -0 -0 -0
-2 -0 -0 -0 -0 -0 -1 -0 -0 -27 -1 -24 -21 -1 -4 -3 -13 -0 -0 -0 -0 -0 -0 -0 -0 -0 -0 -0 -0 -0 -0 -0 -0 -0 -0 -0 -0 -0 -0 -0 -0 -0 -0 -0
-0 -3 -0 -0 -0 -0 -1 -0 -0 -25 -0 -56 -0 -54 -23 -15 -0 -0 -0 -1 -0 -0 -0 -0 -0 -0 -0 -0 -0 -0 -0 -0 -0 -0 -0 -0 -0 -0 -0 -0 -0 -0 -0 -0
-0 -0 -0 -0 -0 -1 -10 -0 -0 -0 -0 -0 -0 -5 -0 -9 -25 -0 -0 -0 -0 -0 -0 -0 -0 -0 -0 -0 -0 -0 -0 -0 -0 -0 -0 -0 -0 -0 -0 -0 -0 -0 -0 -0
-0 -0 -0 -0 -0 -0 -1 -5 -0 -4 -2 -0 -0 -0 -78 -0 -0 -0 -0 -0 -77 -0 -0 -0 -0 -0 -0 -0 -0 -0 -0 -0 -0 -0 -0 -0 -0 -0 -0 -0 -0 -0 -0 -0
-0 -0 -0 -0 -0 -0 -1 -11 -0 -13 -8 -0 -0 -6 -11 -39 -0 -0 -0 -0 -0 -0 -0 -0 -0 -0 -0 -0 -0 -0 -0 -0 -0 -0 -0 -0 -0 -0 -0 -0 -0 -0 -0 -0
-0 -0 -0 -0 -0 -0 -18 -48 -30 -0 -27 -3 -0 -0 -0 -6 -0 -0 -65 -15 -0 -0 -5 -0 -0 -0 -0 -0 -0 -0 -0 -0 -0 -0 -0 -0 -0 -0 -0 -0 -0 -0 -0 -0
-0 -0 -0 -0 -0 -2 -12 -0 -44 -16 -4 -0 -0 -0 -0 -31 -18 -33 -64 -61 -3 -76 -0 -0 -0 -0 -0 -0 -0 -0 -0 -0 -0 -0 -0 -0 -0 -0 -0 -0 -0 -0 -0 -0
-1 -5 -5 -3 -0 -0 -17 -13 -0 -0 -0 -0 -0 -0 -0 -45 -16 -35 -1 -0 -13 -0 -0 -0 -0 -0 -0 -0 -0 -0 -0 -0 -0 -0 -0 -0 -0 -0 -0 -0 -0 -0 -0 -0
-0 -2 -2 -0 -0 -30 -0 -43 -0 -0 -0 -0 -0 -0 -0 -7 -0 -0 -0 -0 -0 -0 -0 -0 -0 -0 -0 -0 -0 -0 -0 -0 -0 -0 -0 -0 -0 -0 -0 -0 -0 -0 -0 -0
-4 -1 -0 -1 -1 -1 -3 -16 -17 -30 -37 -0 -0 -2 -0 -0 -0 -0 -0 -0 -5 -0 -0 -0 -0 -1 -0 -0 -0 -0 -0 -0 -0 -0 -0 -0 -0 -0 -0 -0 -0 -0 -0 -0
-1 -1 -0 -3 -5 -58 -32 -1 -5 -11 -29 -34 -0 -0 -12 -0 -0 -0 -0 -0 -0 -20 -0 -0 -0 -3 -0 -0 -0 -0 -0 -0 -0 -0 -0 -0 -0 -0 -0 -0 -0 -0 -0 -0
-8 -4 -0 -0 -41 -15 -1 -0 -0 -0 -0 -0 -0 -0 -0 -0 -0 -0 -0 -0 -0 -9 -0 -5 -0 -0 -0 -0 -0 -0 -0 -0 -0 -0 -0 -0 -0 -0 -0 -0 -0 -0 -0 -0
-4 -23 -0 -38 -41 -34 -0 -0 -0 -0 -0 -0 -0 -0 -0 -0 -0 -0 -0 -0 -0 -0 -0 -0 -0 -0 -0 -0 -0 -0 -0 -0 -0 -0 -0 -0 -0 -0 -0 -0 -0 -0 -0 -0
-38 -0 -0 -53 -0 -0 -0 -0 -0 -0 -0 -0 -0 -0 -0 -0 -0 -0 -0 -0 -0 -0 -0 -0 -0 -0 -0 -0 -0 -0 -0 -0 -0 -0 -0 -0 -0 -0 -0 -0 -0 -0 -0 -0
-0 -0 -0 -0 -0 -0 -0 -0 -0 -0 -0 -0 -0 -0 -0 -0 -0 -0 -0 -0 -0 -0 -0 -0 -0 -0 -0 -0 -0 -0 -0 -0 -0 -0 -0 -0 -0 -0 -0 -0 -0 -0 -0 -0
-0 -0 -0 -0 -0 -0 -0 -0 -0 -0 -0 -0 -0 -0 -0 -0 -0 -0 -0 -0 -0 -0 -0 -0 -0 -0 -0 -0 -0 -0 -0 -0 -0 -0 -0 -0 -0 -0 -0 -0 -0 -0 -0 -0
-0 -0 -0 -0 -0 -0 -0 -0 -0 -0 -0 -0 -0 -0 -0 -0 -0 -0 -0 -0 -0 -0 -0 -0 -0 -0 -0 -0 -0 -0 -0 -0 -0 -0 -0 -0 -0 -0 -0 -0 -0 -0 -0 -0
-0 -0 -0 -0 -0 -0 -0 -0 -0 -0 -0 -0 -0 -0 -0 -0 -0 -0 -0 -0 -0 -0 -0 -0 -0 -0 -0 -0 -0 -0 -0 -0 -0 -0 -0 -0 -0 -0 -0 -0 -0 -0 -0 -0
Wind_Speed
35 36 35 31 28 26 22 6 8 9 16 15 9 19 12 5 10 3 2 3 4 4 3 6 7 12 9 10 13 9 6 5 5 7 1 1 3 4 4 4 4 1 1 6
35 37 37 34 32 32 12 6 5 9 16 15 17 14 15 7 8 11 8 5 6 1 1 3 6 6 5 9 9 10 8 1 2 3 1 2 3 5 4 5 3 7 4 5
35 38 39 36 34 35 11 6 9 8 12 18 21 18 20 19 10 10 5 4 2 2 3 3 2 5 3 7 4 5 10 5 7 11 6 6 5 6 6 5 4 5 7 6
28 39 41 38 36 37 11 6 6 9 16 22 22 21 14 26 13 9 13 6 12 3 5 3 5 2 1 3 5 4 5 7 6 5 5 6 7 5 11 10 7 8 8 10
32 37 41 39 38 40 11 5 6 4 13 24 25 15 21 26 24 17 13 9 14 14 7 8 5 4 3 3 1 6 1 5 5 3 3 6 5 6 10 9 2 8 7 8
34 31 43 40 39 37 7 5 2 2 13 21 18 24 19 17 20 12 10 13 3 7 17 9 5 5 5 5 3 2 3 8 5 5 2 3 5 8 10 6 6 6 8 12
33 32 43 42 40 37 4 4 3 5 6 13 19 21 18 22 24 12 15 9 12 5 3 4 1 5 2 5 3 5 7 5 2 3 2 6 3 2 3 11 5 9 5 5
33 34 41 41 40 42 7 3 3 3 3 10 13 18 24 10 15 17 14 8 4 1 4 2 4 4 3 1 1 4 3 6 4 6 5 3 2 5 8 8 14 11 13 5
32 36 41 39 40 40 8 4 2 4 5 3 13 18 18 16 11 7 13 1 4 6 3 3 5 6 2 4 3 3 4 4 4 4 5 10 6 5 5 4 13 8 11 11
32 39 40 38 42 37 8 3 4 4 2 4 5 14 15 15 8 5 6 9 4 5 2 2 4 4 7 4 8 6 3 2 6 3 4 6 7 4 5 6 15 7 14 16
36 37 37 40 41 36 9 4 3 4 1 2 6 4 9 10 17 9 6 8 5 2 5 4 4 3 5 3 4 7 8 8 4 4 2 8 8 6 11 7 2 6 11 14
37 35 33 39 38 34 11 5 3 4 4 4 4 4 8 8 14 13 14 7 8 8 6 4 3 3 1 6 8 0 4 7 8 10 8 2 11 4 7 4 4 6 12 12
36 35 33 32 30 27 9 4 4 5 2 8 4 7 3 4 9 7 6 2 6 5 4 6 4 5 5 6 7 2 4 3 3 3 5 7 7 3 3 5 5 6 9 16
30 31 30 30 27 26 12 4 3 4 2 4 5 1 7 8 9 7 4 2 4 5 2 3 4 5 4 5 3 4 3 8 7 3 5 2 9 9 5 5 5 10 10 10
27 26 27 25 27 26 8 3 5 8 3 3 5 9 5 9 11 12 10 9 3 3 2 2 3 3 4 1 2 4 6 8 7 8 11 7 5 11 9 10 9 12 18 14
27 27 27 27 25 17 5 2 2 5 5 5 3 4 4 3 8 11 13 10 5 3 3 3 2 2 2 5 5 6 9 7 2 1 2 3 5 6 6 9 12 11 13 17
27 26 26 25 26 8 4 5 4 17 4 3 3 4 4 3 2 2 4 5 3 3 3 2 2 1 1 2 6 4 6 6 4 6 8 2 5 5 6 12 14 16 15 15
22 22 23 26 21 7 4 1 13 15 5 1 3 4 3 1 1 2 2 4 2 0 3 1 3 1 0 5 5 4 2 6 6 2 4 2 12 13 13 14 15 17 16 16
23 25 25 13 3 3 4 11 16 2 2 4 2 2 3 3 1 1 0 1 3 1 2 3 4 2 6 4 5 6 7 3 8 11 7 12 11 14 14 15 15 18 17 16
25 14 3 3 3 12 15 4 4 2 3 2 2 1 3 2 0 1 1 3 3 3 3 3 3 3 1 3 5 6 10 13 14 9 5 7 12 12 12 11 11 14 15 15
3 3 3 2 18 3 3 2 3 2 2 4 4 5 2 1 2 2 2 2 2 4 4 5 3 2 2 7 4 5 5 9 7 5 9 7 8 12 15 14 13 12 14 14
4 3 5 4 2 3 3 3 2 4 5 3 4 3 3 1 1 4 1 3 2 4 2 3 2 3 4 3 5 8 8 7 10 8 16 16 13 12 15 14 13 13 14 14
1 3 4 2 1 2 6 6 3 3 2 1 1 2 2 1 3 3 3 3 2 3 1 3 3 3 3 3 4 9 14 5 11 19 16 17 15 13 15 16 13 15 15 13
3 3 5 2 1 2 1 1 1 0 1 1 1 2 2 2 3 0 4 1 1 2 2 4 3 3 4 6 7 9 13 10 14 14 16 16 16 15 14 13 12 13 12 10
4 4 4 3 3 3 3 2 1 2 2 1 2 3 3 4 4 4 1 3 6 6 5 4 7 6 5 8 9 10 11 10 12 12 14 14 15 15 14 11 11 11 11 10
4 8 6 6 2 4 3 6 4 5 5 2 4 4 4 6 3 6 7 4 5 6 6 7 5 7 6 8 9 10 11 12 12 12 13 14 13 13 12 12 11 10 10 10
5 4 8 5 2 5 6 6 7 5 2 4 3 8 6 3 5 6 6 5 5 9 7 6 7 7 8 9 11 12 13 13 13 13 14 14 12 12 13 14 11 11 11 10
Wind_Direction
211 204 197 196 191 189 170 181 183 161 157 206 202 215 186 200 207 161 141 129 225 224 240 181 184 196 213 167 149 158 187 145 173 200 76 114 151 172 160 136 193 144 254 257
209 199 191 191 185 183 168 188 177 163 157 205 207 208 207 204 188 206 158 189 218 112 304 223 189 192 226 157 149 154 177 185 149 319 104 36 197 182 145 108 97 190 194 252
206 195 185 187 181 178 161 177 171 161 182 219 222 195 203 198 198 229 188 150 213 171 292 205 250 204 230 179 211 131 126 142 170 223 221 166 193 191 183 151 159 182 223 250
224 192 181 182 178 174 166 189 196 220 169 206 221 207 196 194 184 202 191 182 230 166 204 283 232 134 90 113 170 142 146 185 180 224 208 182 198 180 176 198 200 196 237 212
206 191 179 177 178 172 183 173 172 235 168 196 214 230 204 196 193 171 209 183 198 206 226 214 175 91 110 225 240 161 197 187 151 187 144 204 232 205 195 218 223 246 237 241
198 197 173 173 176 168 175 220 175 171 197 173 199 212 210 200 186 220 200 197 205 186 225 247 264 239 216 179 146 210 169 139 136 220 88 147 286 209 191 192 204 190 209 229
192 194 172 169 177 182 123 164 139 169 176 177 195 188 220 209 199 184 212 180 194 242 146 126 55 52 62 166 189 171 156 134 103 152 113 227 249 100 203 218 237 218 252 229
186 183 170 168 178 184 162 150 133 174 188 194 183 189 199 206 207 208 181 177 149 175 37 98 183 323 9 199 79 181 202 132 115 150 201 296 210 199 180 176 249 213 227 192
178 178 167 170 180 177 152 150 102 71 191 224 197 177 188 200 194 171 198 187 85 53 85 122 208 185 148 240 147 107 86 60 151 154 187 222 190 209 140 119 270 197 186 175
175 173 162 175 177 172 136 97 102 85 153 249 231 187 189 190 195 158 141 172 137 143 133 178 208 201 134 226 179 169 118 42 167 153 215 285 244 140 145 154 261 191 181 169
166 157 166 169 168 169 132 102 100 126 126 288 315 324 161 164 202 183 149 136 211 117 167 175 198 192 179 165 230 181 163 155 175 111 139 262 157 97 173 215 197 187 172 168
150 156 159 162 165 171 131 116 79 88 90 310 317 256 267 259 192 164 175 175 161 182 165 188 104 164 153 143 238 4 219 193 177 189 204 207 198 195 191 149 188 194 165 157
149 158 162 165 162 164 112 95 115 65 107 297 209 238 270 222 232 218 150 210 166 180 187 164 184 191 132 158 223 215 237 181 173 119 210 217 217 229 222 189 204 171 171 149
148 154 156 160 161 153 127 108 119 101 51 274 283 204 229 212 202 199 207 144 84 102 127 176 160 164 182 201 204 216 190 143 160 262 265 309 250 227 187 165 143 120 113 145
136 139 141 145 150 154 113 83 152 183 172 298 299 319 252 210 182 186 200 205 139 139 153 136 223 128 130 142 112 235 200 171 169 211 206 182 218 185 157 157 165 146 130 123
125 127 134 136 139 127 94 95 245 186 143 295 292 304 274 208 177 184 194 201 193 156 159 196 237 279 162 164 192 243 205 203 188 188 109 67 68 94 133 139 147 140 133 138
131 135 136 145 148 143 149 203 189 152 151 226 245 263 217 213 169 150 148 156 172 163 190 221 150 227 232 138 190 242 219 178 153 133 119 90 193 181 139 127 121 115 115 122
135 140 142 146 150 68 243 287 138 136 217 247 290 266 324 282 153 146 8 129 120 86 151 86 157 100 2 247 203 169 146 115 109 146 45 355 116 118 122 125 128 120 121 124
133 128 132 134 174 170 217 149 144 207 196 176 175 273 279 14 93 59 196 81 120 63 158 186 140 162 222 241 192 169 169 209 142 93 97 125 134 133 138 136 134 126 134 129
129 130 137 129 194 129 112 133 164 207 253 240 211 199 261 106 279 154 329 40 134 158 209 126 177 237 326 355 326 145 140 137 130 112 116 124 127 134 135 131 128 129 131 129
157 138 165 189 158 108 50 131 154 170 240 205 216 175 221 232 138 121 14 111 342 182 191 172 184 258 0 342 52 86 134 144 97 124 125 139 152 143 128 114 114 118 121 120
207 145 93 97 109 85 155 188 163 218 218 199 168 174 195 252 244 97 154 138 121 237 143 131 164 22 339 345 86 71 58 62 105 131 109 109 123 128 113 115 112 103 101 105
85 68 80 154 19 178 186 186 209 188 190 224 168 147 150 119 57 76 110 159 174 356 30 77 41 354 13 52 87 96 77 99 96 91 94 100 104 99 107 105 102 103 100 100
53 69 79 16 358 25 8 304 314 178 182 269 146 112 125 89 70 271 100 81 108 57 27 50 11 32 34 60 74 80 88 77 84 97 99 101 99 93 91 93 101 104 103 105
68 43 60 50 354 343 346 297 261 298 234 187 115 71 60 43 69 29 83 50 58 22 6 344 341 18 45 57 65 83 95 95 89 91 95 96 96 94 89 83 89 98 103 100
60 44 353 349 19 359 350 352 8 356 348 11 36 70 66 44 32 49 18 50 40 353 326 330 352 32 46 64 70 74 79 83 86 85 89 89 88 92 90 82 79 79 88 96
45 42 13 343 14 13 353 345 342 310 12 47 48 50 28 343 56 49 20 31 343 319 343 3 28 51 62 71 74 76 80 80 79 81 80 85 87 89 87 88 83 85 82 81